Location: Worth Mountain WMA
(34.9569°N, 81.4819°W)
Time: 00:52:39
(UTC-04:00)

USA 186 - Pass Details

Date: 18 August 2017
Orbit: 261 x 438 km, 96.9° (Epoch: 22 September)

Event Time Altitude Azimuth Distance (km) Brightness Sun altitude
Exits shadow 21:01:13 - 161° (SSE) 1,755 4.5 -10.6°
Reaches altitude 10° 21:01:45 10° 160° (SSE) 1,532 4.2 -10.7°
Maximum altitude 21:05:02 67° 77° (ENE) 485 1.8 -11.3°
Drops below altitude 10° 21:08:25 10° 355° (N) 1,583 5.1 -12.0°
Sets 21:10:29 0° 353° (N) 2,462 6.1 -12.4°
